Погода в Кочки

Погода в Кочки : погода сейчас, прогноз погоды и архив. Всё, что Вы хотите узнать о погоде в Кочки!

Хотите узнать прогноз погоды в Кочки? Тогда Вам сюда: Погода в Кочки

Поиск расширенной информации на нашем сайте:

Другие новости

Новости СМИ2

Главная страница сайта

Новости сайта

03.07.2017

Напоминаем, что на нашем специализированном сайте Метеоцентр.Азия вы можете получить высокодетализированные автоматические прогнозы погоды по пунктам России, СНГ и мира в авиационном формате (включающие направление и скорость ветра, видимость, явления погоды, количество и форму облачности, нижнюю и верхнюю границу облачности).


Погода в Кочки - сегодня

Время (UTC), дата Ветер
(°,м/с) 
Видим.   Явления Облачность Т
(°С)
Тd
(°С)
f(%) Тe
(°С)
Pmin
(гПа)
dP
(гПа)
Po
(мм)
O2
(г/м3)
Тmin Tmax R s Состояние
почвы
12 15.04.18 230 (ЮЗ) 5{14}  20000 м    4/3 1000 м средняя 
[Sc|Ac trans]
+7 -5.6 40 +5  1011.2  -1.3  744  293    +7.6       
15 15.04.18 220 (ЮЗ) 20000 м    10/6 600 м кучево-дожд., средняя, верхняя 
[Cb cap|Ac As|Ci fib]
+4.4 -3.7 56 +3  1010.9  -0.5  743  295           
18 15.04.18 210 (ЮЗ) 20000 м    10/8 600 м кучево-дожд., средняя 
[Cb cap|Ac As]
+3.2 -3.8 60 +1  1009.8  -1.1  743  296           
21 15.04.18 220 (ЮЗ) 20000 м    10/8 1000 м средняя 
[Sc|Ac As]
+3.9 -3.9 57 +2  1008.1  -1.6  741  295           
00 16.04.18 210 (ЮЗ) 20000 м    10/6 1000 м средняя 
[Sc|Ac As]
+3.7 -4.7 54 +1  1006.7  -1.4  740  295  +1.8         
12 16.04.18 260 (З) 3{15}  20000 м  в посл. час ливневой дождь  10/8 600 м кучево-дожд., средняя 
[Cb cap|Ac As]
+7.4 +2.8 73 +7  1002.8  0.5  738  289    +12.1  0.3     
18 16.04.18 230 (ЮЗ) 1{11}  20000 м  {ливн. осадки}  ясно 
-0.1 -3.3 79 +1  1007.4  2.5  741  299           
00 17.04.18 230 (ЮЗ) 20000 м    9/5 600 м средняя 
[Sc|Ac trans]
-2.2 -3.7 89 -4  1010.6  1.2  743  302  -3.4    0.3     
03 17.04.18 280 (З) 20000 м    6/1 1000 м средняя 
[Cu hum|Ac trans]
+0.6 -6.5 59 -2  1012.2  1.7  744  300           
12 17.04.18 280 (З) 5{13}  20000 м    4/4 1000 м 
[Cu hum]
+0.8 -14.1 32 -2  1017.3  1.8  748  302    +3.5       
15 17.04.18 290 (З) 1{10}  20000 м    3/3 1000 м 
[Sc]
-3.1 -11.4 53 -3  1018.9  1.3  749  306           
18 17.04.18 280 (З) 20000 м    ясно 
-4.2 -10.6 61 -4  1020.2  1.2  750  308           
21 17.04.18 270 (З) 20000 м    ясно 
-6.6 -10.4 74 -6  1021.3  0.9  750  311           
00 18.04.18 220 (ЮЗ) 20000 м    ясно 
-7.8 -9.5 88 -8  1022.2  0.8  751  312  -8.3         
03 18.04.18 010 (С) 20000 м    3/1 1000 м верхняя 
[Cu hum|Ci sp]
-0.6 -12.1 41 1022.7  752  305           
06 18.04.18 010 (С) 20000 м    8/6 1000 м верхняя 
[Cu hum|Ci fib]
+0.9 -14.2 31 1022.9  0.3  752  303           
09 18.04.18 300 (СЗ) 20000 м    9/6 600 м кучево-дожд., средняя 
[Cb cap|Ac As]
+1.8 -13.3 32 1022.3  -0.5  752  302           
12 18.04.18 330 (СЗ) 20000 м    10/4 1000 м средняя, верхняя 
[Sc|Ac trans|Ci fib]
+1.6 -13.1 33 +2  1021.7  -0.6  751  302    +2.7       
15 18.04.18 140 (ЮВ) 20000 м    10/0 верхняя 
[Cs]
-0.7 -9.9 50 1022.4  0.5  752  305           
18 18.04.18 120 (ЮВ) 20000 м    10/0 верхняя 
[Ci fib]
-2.1 -9.3 58 -2  1022.1  -0.4  751  306           
21 18.04.18 070 (В) 20000 м    ясно 
-4.2 -8.8 70 -4  1021.3  -0.9  751  308           
00 19.04.18 080 (В) 20000 м    8/3 1000 м верхняя 
[Sc|Ci sp]
-3.5 -8.6 68 -3  1020.6  -0.7  750  307  -4.5         
03 19.04.18 160 (Ю) 20000 м    3/0 верхняя 
[Cc]
+2.7 -10.8 36 +1  1019  -1  749  300           
06 19.04.18 150 (ЮВ) 4{11}  20000 м    3/1 1000 м верхняя 
[Cu hum|Ci fib]
+6.2 -11.8 26 +5  1017.3  -1.5  748  296           
09 19.04.18 100 (В) 20000 м    8/6 1000 м верхняя 
[Cu hum|Ci fib]
+7.4 -11.3 25 +8  1016  -1.2  747  294           
Время (UTC), дата Ветер
(°,м/с) 
Видим.   Явления Облачность Т
(°С)
Тd
(°С)
f(%) Тe
(°С)
Pmin
(гПа)
dP
(гПа)
Po
(мм)
O2
(г/м3)
Тmin Tmax R s Состояние
почвы

Для получения пояснительной информации подведите курсор к названию столбца.

ПОГОДА в Кочки - архив

Всё, что Вы хотите узнать о погоде в Кочки - удобно и подробно!

Выберите нужную дату (начиная с 1 января 2015* года) и нажмите кнопку "Найти".
Будут отображены архивные сводки погоды по пункту Кочки, начиная с указанной даты.


Отображать данные в формате CSV (для использования в таблицах Excel)


Внимание! Наш архив погоды предназначен исключительно для личного некоммерческого использования в познавательных целях. Если Вам необходимы официальные справки о состоянии погоды (для производственных, юридических, коммерческих и т.п. целей), обращайтесь в органы Росгидромета.

*Примечание: данная дата относится к архиву по метеостанциям СССР (Россия, СНГ, Балтия).
Архив по метеостанциям Зарубежной Европы и Азии (кроме Китая) хранится 10 дней, по другим регионам земного шара (Китай, Африка, Америка, Австралия, Океания) - 1 день.

Кочки - район местоположения метеостанции


Название, широта, долгота, высота метеостанции:
Кочки 54.3°ш. 80.5°д. 164 м над ур. моря [Российская Федерация]

Дополнительная информация

В oтличие oт бoльшинства пoгoдных сайтoв мы публикуем пoдрoбную метеoинфoрмацию в детальнoм прoфессиoнальнoм фoрмате.

Характеристики температуры и влажнoсти вoздуха измеряются на высoте 2 м в тени вдали oт зданий и деревьев.
Скoрoсть ветра измеряется на высoте 10 м (на урoвне рoста челoвека скoрoсть ветра ниже в 1.5-2 раза). Если метеoстанция нахoдится в гoрoде или в лесу, тo скoрoсть ветра занижена на 2-4 м/с пo сравнению с oткрытым местoм. Скoрoсть ветра над акватoриями крупных рек и oзёр, а также на вершинах хoлмoв на 2-5 м/с выше, чем в oбычных услoвиях.
Атмoсфернoе давление в разных тoчках местнoсти мoжет значительнo oтличаться oт давления на метеoстанции, в зависимoсти oт услoвий рельефа (при пoдъёме на 10 м давление пoнижается примернo на 1 мм рт.ст.).